Content
SEND FEEDBACK

Daily
Averages
Monthly
Summary
United States of America

BAYOU LA BATRE, ALABAMA


Home > North America > United States > Alabama
Elevation: 0 feet     Latitude: 30 23N     Longitude: 088 14W

WEATHER
 
SELECT A DAY
Number of Records: 196,023;   Date Range: 8/14/97 - 9/21/14
 
SHARE

PRINT THIS DATA

[ ← Previous Day ]
WEATHER ALMANAC - JULY 20, 2014
[ Next Day → ]
[ °C ]   °F
Weather ElementAverageHighLow
Temperature78.8 °F86 °F (10:53 am)73.4 °F (11:48 pm)
Dewpoint75.1 °F78.1 °F (12:20 am)72 °F (11:53 am)
Humidity88.7 %100 % (11:48 pm)63 % (11:53 am)
Barometer30.00 in30.05 in (8:53 am)29.96 in (2:09 am)
Wind Speed4.9 mph13.8 mph (1:06 pm)
Wind Gust25.3 mph (3:41 pm)
Weather ElementAverage
Visibility8.4 mi
Wind DirectionSSE (149.3 °)

Weather ElementTotal
Precipitation1.99 in
Cooling Degree Days14.7 (Base 65)
Growing Degree Days29.7 (Base 50)
Averaged from 46 records on July 20, 2014
WEATHER CONDITIONS BREAKOUT
WIND DIRECTION BREAKOUT
WEATHER BY HOUR - JULY 20, 2014
[ °C ]   °F
Local TimeTemperatureDewpointHumidityBarometerVisibilityWind DirectionWind SpeedGust SpeedPrecipitationEventsConditions
12:20 AM80.1 °F78.1 °F94 %29.98 in10.0 miSouth (190°)4.6 mphMostly Cloudy
12:53 AM81.0 °F78.1 °F91 %29.99 in10.0 miSouth (190°)5.8 mphMostly Cloudy
1:01 AM81.0 °F78.1 °F91 %29.98 in10.0 miSouth (190°)4.6 mphOvercast
1:53 AM80.1 °F78.1 °F94 %29.97 in10.0 miSSW (200°)6.9 mphOvercast
2:09 AM80.1 °F78.1 °F94 %29.96 in10.0 miSSW (200°)6.9 mphOvercast
2:22 AM80.1 °F78.1 °F94 %29.97 in9.0 miWest (260°)6.9 mph0.00 inRainLight Rain
2:35 AM80.1 °F77.0 °F90 %29.97 in10.0 miWest (260°)3.5 mph0.00 inOvercast
2:43 AM79.0 °F77.0 °F94 %29.97 in10.0 miWest (280°)4.6 mph0.00 inRainLight Rain
2:53 AM79.0 °F75.9 °F90 %29.97 in10.0 miWest (280°)4.6 mph0.00 inMostly Cloudy
3:53 AM77.0 °F75.0 °F94 %29.97 in10.0 miCalmClear
4:53 AM75.0 °F73.9 °F96 %29.99 in10.0 miCalmClear
5:53 AM73.9 °F73.0 °F97 %29.99 in10.0 miCalmClear
6:53 AM75.0 °F73.0 °F94 %30.01 in9.0 miCalmClear
7:53 AM77.0 °F73.9 °F90 %30.04 in10.0 miNNW (330°)5.8 mphClear
8:19 AM79.0 °F73.9 °F84 %30.04 in10.0 miNorth (360°)4.6 mphPartly Cloudy
8:53 AM80.1 °F73.9 °F81 %30.05 in10.0 miVariable3.5 mphPartly Cloudy
9:53 AM82.0 °F73.9 °F76 %30.04 in10.0 miNNW (340°)5.8 mphMostly Cloudy
10:53 AM86.0 °F73.0 °F65 %30.04 in10.0 miVariable4.6 mphPartly Cloudy
11:53 AM86.0 °F72.0 °F63 %30.04 in10.0 miCalmMostly Cloudy
12:53 PM84.9 °F73.9 °F69 %30.03 in10.0 miSSE (160°)6.9 mphMostly Cloudy
1:06 PM81.0 °F75.9 °F85 %30.03 in1.8 miSSW (200°)13.8 mph17.3 mph0.15 inRainHeavy Rain
1:14 PM79.0 °F77.0 °F94 %30.03 in0.5 miWest (260°)3.5 mph17.3 mph0.38 inFog-RainHeavy Rain
1:21 PM79.0 °F75.9 °F90 %30.03 in1.0 miNorth (10°)4.6 mph0.45 inRainRain
1:33 PM79.0 °F77.0 °F94 %30.03 in5.0 miCalm0.46 inOvercast
1:53 PM82.0 °F78.1 °F88 %30.02 in9.0 miSSE (160°)8.1 mph0.46 inOvercast
2:53 PM82.0 °F75.9 °F82 %30.03 in10.0 miSouth (190°)10.4 mph17.3 mphMostly Cloudy
3:04 PM80.1 °F75.9 °F87 %30.02 in10.0 miSSW (200°)11.5 mph19.6 mphOvercast
3:14 PM80.1 °F75.0 °F85 %30.02 in10.0 miSSW (200°)12.7 mph24.2 mph0.00 inRainLight Rain
3:41 PM77.0 °F73.9 °F90 %30.02 in2.5 miSW (220°)11.5 mph25.3 mph0.03 inRainRain
3:48 PM75.2 °F73.4 °F94 %30.01 in3.0 miSW (220°)8.1 mph19.6 mph0.03 inRainLight Rain
3:53 PM75.9 °F73.9 °F94 %30.02 in10.0 miSW (230°)10.4 mph18.4 mph0.03 inOvercast
4:53 PM77.0 °F73.0 °F88 %30.00 in10.0 miSW (230°)6.9 mphMostly Cloudy
5:53 PM78.1 °F73.9 °F87 %29.99 in10.0 miSSW (210°)4.6 mphPartly Cloudy
6:08 PM79.0 °F73.9 °F84 %29.99 in10.0 miSSW (210°)5.8 mphMostly Cloudy
6:27 PM79.0 °F73.9 °F84 %29.98 in10.0 miVariable4.6 mphOvercast
6:53 PM79.0 °F73.9 °F84 %29.98 in10.0 miSSW (200°)6.9 mphOvercast
7:02 PM78.1 °F75.0 °F90 %29.98 in10.0 miSouth (180°)6.9 mph0.00 inRainLight Rain
7:41 PM78.1 °F75.0 °F90 %29.97 in10.0 miWSW (240°)4.6 mph0.00 inRainLight Rain
7:53 PM78.1 °F75.0 °F90 %29.97 in10.0 miWSW (240°)4.6 mph0.00 inOvercast
8:00 PM78.1 °F75.0 °F90 %29.97 in10.0 miVariable3.5 mphOvercast
8:53 PM78.1 °F75.0 °F90 %29.97 in10.0 miSW (230°)3.5 mphMostly Cloudy
9:06 PM77.0 °F75.0 °F94 %29.96 in10.0 miCalmScattered Clouds
9:53 PM75.9 °F73.9 °F94 %29.97 in8.0 miCalmClear
10:53 PM75.0 °F73.9 °F96 %29.99 in6.0 miCalmClear
11:48 PM73.4 °F73.4 °F100 %29.99 in1.8 miCalmClear
11:53 PM73.9 °F73.0 °F97 %29.99 in0.8 miCalmMist
Hourly data recorded from KPQL, located miles away from Bayou La Batre, Alabama







STORIES FROM OUR PARTNERS